Weather History for KUIL - August, 2013

Change the Weather History Date:

Thursday, August 8, 2013

  Actual Average Record
Temperature  
Mean Temperature 66 °F 60 °F  
Max Temperature 73 °F 69 °F 92 °F (1978)
Min Temperature 58 °F 51 °F 43 °F (1969)
Degree Days  
Heating Degree Days 0 5  
Month to date heating degree days 14 40  
Since 1 June heating degree days 307 528  
Since 1 July heating degree days 127 234  
Cooling Degree Days 1 0  
Month to date cooling degree days 1 0  
Year to date cooling degree days 17 11  
Since 1 June cooling degree days 14 10  
Growing Degree Days 15 (Base 50)    
Moisture  
Dew Point 56 °F    
Average Humidity 75    
Maximum Humidity 93    
Minimum Humidity 57    
Precipitation  
Precipitation 0.00 in 0.06 in 4.29 in (1991)
Month to date precipitation 0.02 0.47  
Year to date precipitation 58.83 54.70  
Sea Level Pressure  
Sea Level Pressure 30.05 in    
Wind  
Wind Speed 6 mph (NW)    
Max Wind Speed 14 mph    
Max Gust Speed 22 mph    
Visibility 4 miles    
Events Fog    
T = Trace of Precipitation, MM = Missing Value Source: NWS Daily Summary

Daily Weather History Graph

Daily Weather History Graph

Search for Another Location

Airport or City:

Trip Planner

Search our weather history database for the weather conditions in past years. The results will help you decide how hot, cold, wet, or windy it might be!

Date:

Astronomy

Aug. 08, 2013 Rise Set
Actual Time 6:04 AM PDT 8:42 PM PDT
Civil Twilight 5:29 AM PDT 9:17 PM PDT
Nautical Twilight 4:44 AM PDT 10:01 PM PDT
Astronomical Twilight 3:52 AM PDT 10:53 PM PDT
Moon 8:10 AM PDT (8/8) 9:08 PM PDT (8/8)
Length of Visible Light 15h 48m
Length of Day
14h 38m
Waxing Crescent, 3% of the Moon is Illuminated
Aug 8
Waxing Crescent
Aug 14
First Quarter
Aug 20
Full
Aug 28
Last Quarter
Sep 5
New

Hourly Weather History & Observations

Time (PDT) Temp. Dew Point Humidity Pressure Visibility Wind Dir Wind Speed Gust Speed Precip Events Conditions
12:23 AM 60.8 °F 57.2 °F 88% 30.07 in 1.0 mi Calm Calm - N/A   Overcast
12:53 AM 60.1 °F 57.0 °F 90% 30.06 in 1.0 mi WNW 3.5 mph - N/A   Mist
1:03 AM 60.8 °F 57.2 °F 88% 30.07 in 2.0 mi Calm Calm - N/A   Overcast
1:10 AM 60.8 °F 57.2 °F 88% 30.06 in 1.2 mi Calm Calm - N/A   Overcast
1:21 AM 60.8 °F 55.4 °F 82% 30.06 in 0.8 mi Calm Calm - N/A   Overcast
1:37 AM 60.8 °F 57.2 °F 88% 30.06 in 1.0 mi Calm Calm - N/A   Overcast
1:43 AM 60.8 °F 55.4 °F 82% 30.06 in 0.8 mi Calm Calm - N/A   Overcast
1:53 AM 60.1 °F 57.0 °F 90% 30.06 in 0.5 mi Calm Calm - N/A Fog Fog
2:10 AM 60.8 °F 57.2 °F 88% 30.06 in 1.0 mi Calm Calm - N/A   Mist
2:22 AM 60.8 °F 57.2 °F 88% 30.06 in 2.0 mi Calm Calm - N/A   Overcast
2:37 AM 60.8 °F 57.2 °F 88% 30.06 in 1.2 mi Calm Calm - N/A   Overcast
2:50 AM 60.8 °F 57.2 °F 88% 30.06 in 1.5 mi Calm Calm - N/A   Overcast
2:53 AM 60.1 °F 57.0 °F 90% 30.06 in 2.0 mi Calm Calm - N/A   Overcast
3:18 AM 60.8 °F 55.4 °F 82% 30.05 in 2.0 mi Calm Calm - N/A   Overcast
3:29 AM 59.0 °F 55.4 °F 88% 30.06 in 3.0 mi Calm Calm - N/A   Overcast
3:53 AM 59.0 °F 55.9 °F 90% 30.06 in 2.5 mi West 3.5 mph - N/A   Overcast
3:59 AM 59.0 °F 55.4 °F 88% 30.06 in 1.2 mi West 3.5 mph - N/A   Overcast
4:11 AM 59.0 °F 55.4 °F 88% 30.06 in 1.8 mi West 3.5 mph - N/A   Overcast
4:21 AM 59.0 °F 55.4 °F 88% 30.05 in 2.0 mi WNW 3.5 mph - N/A   Overcast
4:29 AM 59.0 °F 55.4 °F 88% 30.05 in 1.8 mi Calm Calm - N/A   Overcast
4:40 AM 59.0 °F 55.4 °F 88% 30.05 in 0.8 mi Calm Calm - N/A   Overcast
4:53 AM 59.0 °F 55.9 °F 90% 30.05 in 1.2 mi NW 3.5 mph - N/A   Overcast
5:08 AM 59.0 °F 55.4 °F 88% 30.05 in 0.5 mi NW 3.5 mph - N/A Fog Fog
5:30 AM 59.0 °F 55.4 °F 88% 30.05 in 1.0 mi Calm Calm - N/A   Mist
5:49 AM 59.0 °F 55.4 °F 88% 30.05 in 0.8 mi NW 4.6 mph - N/A   Overcast
5:53 AM 59.0 °F 55.9 °F 90% 30.05 in 0.8 mi NW 4.6 mph - N/A   Mist
6:23 AM 57.2 °F 55.4 °F 94% 30.05 in 0.2 mi NW 6.9 mph - N/A Fog Fog
6:30 AM 57.2 °F 55.4 °F 94% 30.06 in 0.5 mi WNW 3.5 mph - N/A Fog Fog
6:43 AM 57.2 °F 55.4 °F 94% 30.06 in 1.5 mi WNW 5.8 mph - N/A   Overcast
6:48 AM 57.2 °F 55.4 °F 94% 30.06 in 3.0 mi WNW 3.5 mph - N/A   Overcast
6:53 AM 57.9 °F 55.0 °F 90% 30.05 in 4.0 mi WNW 4.6 mph - N/A   Overcast
7:04 AM 57.2 °F 55.4 °F 94% 30.05 in 1.8 mi NW 3.5 mph - N/A   Overcast
7:21 AM 57.2 °F 55.4 °F 94% 30.06 in 3.0 mi NNW 3.5 mph - N/A   Overcast
7:35 AM 57.2 °F 55.4 °F 94% 30.06 in 1.8 mi Calm Calm - N/A   Overcast
7:53 AM 57.9 °F 55.0 °F 90% 30.06 in 2.5 mi NNW 3.5 mph - N/A   Overcast
8:02 AM 57.2 °F 55.4 °F 94% 30.06 in 4.0 mi Variable 3.5 mph - N/A   Overcast
8:53 AM 61.0 °F 55.0 °F 81% 30.06 in 8.0 mi NNE 4.6 mph - N/A   Overcast
9:26 AM 62.6 °F 55.4 °F 77% 30.05 in 8.0 mi North 3.5 mph - N/A   Overcast
9:53 AM 64.0 °F 55.9 °F 75% 30.05 in 9.0 mi NNW 5.8 mph - N/A   Mostly Cloudy
10:11 AM 66.2 °F 55.4 °F 68% 30.05 in 10.0 mi North 5.8 mph - N/A   Scattered Clouds
10:53 AM 68.0 °F 55.9 °F 65% 30.05 in 10.0 mi North 5.8 mph - N/A   Clear
11:53 AM 70.0 °F 55.9 °F 61% 30.06 in 9.0 mi NW 6.9 mph - N/A   Clear
12:53 PM 70.0 °F 55.0 °F 59% 30.06 in 9.0 mi NNW 8.1 mph - N/A   Clear
1:53 PM 69.1 °F 55.0 °F 61% 30.06 in 9.0 mi WNW 10.4 mph - N/A   Clear
2:53 PM 72.0 °F 55.0 °F 55% 30.06 in 9.0 mi NNW 10.4 mph - N/A   Clear
3:53 PM 72.0 °F 55.0 °F 55% 30.05 in 9.0 mi Variable 4.6 mph - N/A   Clear
4:53 PM 68.0 °F 55.0 °F 63% 30.04 in 9.0 mi WNW 13.8 mph 20.7 mph N/A   Clear
5:48 PM 66.2 °F 55.4 °F 68% 30.04 in 8.0 mi NW 9.2 mph - N/A   Mostly Cloudy
5:53 PM 64.9 °F 55.9 °F 73% 30.04 in 8.0 mi NW 9.2 mph - N/A   Mostly Cloudy
6:02 PM 64.4 °F 55.4 °F 73% 30.04 in 8.0 mi NW 8.1 mph - N/A   Overcast
6:53 PM 64.0 °F 55.9 °F 75% 30.03 in 8.0 mi NNW 9.2 mph - N/A   Overcast
7:25 PM 62.6 °F 55.4 °F 77% 30.02 in 7.0 mi NNW 11.5 mph - N/A   Overcast
7:53 PM 62.1 °F 55.9 °F 80% 30.02 in 6.0 mi North 9.2 mph - N/A   Haze
8:53 PM 61.0 °F 57.0 °F 87% 30.02 in 3.0 mi NNW 5.8 mph - N/A   Overcast
9:53 PM 61.0 °F 55.9 °F 83% 30.02 in 7.0 mi NNW 5.8 mph - N/A   Overcast
10:53 PM 61.0 °F 55.9 °F 83% 30.01 in 9.0 mi NNW 3.5 mph - N/A   Overcast
11:53 PM 62.1 °F 55.9 °F 80% 30.01 in 9.0 mi Calm Calm - N/A   Overcast